,,PA_Meas_PMT16A,,PR_Meas_QMR101_102,,RH_Meas_QMH101,,SR_Meas_QMS101,,TA_Meas_QMH101,,GenWind,,GenWind,
time,status,PA,status,PR,status,RH,status,SR,status,TA,status,DirAvg,status,SpdAvg,
2012-10-17, 00:00:05,VALID,919.31,VALID,0,VALID,97.656,VALID,0,VALID,19.4718,VALID,130,VALID,0,
2012-10-17, 00:01:05,VALID,919.42,VALID,0,VALID,97.6407,VALID,0,VALID,19.4913,VALID,130,VALID,0,
2012-10-17, 00:02:05,VALID,919.425,VALID,0,VALID,97.6407,VALID,0,VALID,19.4913,VALID,130,VALID,0,
2012-10-17, 00:03:05,VALID,919.364,VALID,0,VALID,97.6636,VALID,0,VALID,19.4508,VALID,130,VALID,0,
2012-10-17, 00:04:05,VALID,919.468,VALID,0,VALID,97.6255,VALID,0,VALID,19.4523,VALID,130,VALID,0,
2012-10-17, 00:05:05,VALID,919.464,VALID,0,VALID,97.6483,VALID,0,VALID,19.4132,VALID,116,VALID,0,
2012-10-17, 00:06:05,VALID,919.307,VALID,0,VALID,97.6636,VALID,0,VALID,19.3547,VALID,116,VALID,0,
2012-10-17, 00:07:05,VALID,919.221,VALID,0,VALID,97.6712,VALID,0,VALID,19.3352,VALID,116,VALID,0,
2012-10-17, 00:08:05,VALID,919.544,VALID,0,VALID,97.656,VALID,0,VALID,19.3157,VALID,100,VALID,0,
2012-10-17, 00:09:05,VALID,919.451,VALID,0,VALID,97.6712,VALID,0,VALID,19.2962,VALID,99,VALID,0,
2012-10-17, 00:10:05,VALID,919.421,VALID,0,VALID,97.656,VALID,0,VALID,19.2962,VALID,99,VALID,0,
2012-10-17, 00:11:05,VALID,919.611,VALID,0,VALID,97.6712,VALID,0,VALID,19.3157,VALID,99,VALID,0,
2012-10-17, 00:12:05,VALID,919.454,VALID,0,VALID,97.6788,VALID,0,VALID,19.2558,VALID,99,VALID,0,
2012-10-17, 00:13:05,VALID,919.266,VALID,0,VALID,97.6788,VALID,0,VALID,19.2363,VALID,99,VALID,0,
2012-10-17, 00:14:05,VALID,919.37,VALID,0,VALID,97.656,VALID,0,VALID,19.1987,VALID,99,VALID,0,
2012-10-17, 00:15:05,VALID,919.135,VALID,0,VALID,97.6712,VALID,0,VALID,19.1583,VALID,99,VALID,0,
2012-10-17, 00:16:05,VALID,919.434,VALID,0,VALID,97.6712,VALID,0,VALID,19.1597,VALID,99,VALID,0,
2012-10-17, 00:17:05,VALID,919.269,VALID,0,VALID,97.6636,VALID,0,VALID,19.1792,VALID,99,VALID,0,
2012-10-17, 00:18:05,VALID,919.604,VALID,0,VALID,97.6865,VALID,0,VALID,19.1792,VALID,39,VALID,0,
2012-10-17, 00:19:05,VALID,919.515,VALID,0,VALID,97.6865,VALID,0,VALID,19.1792,VALID,39,VALID,0,
2012-10-17, 00:20:05,VALID,919.191,VALID,0,VALID,97.6712,VALID,0,VALID,19.1987,VALID,39,VALID,0,
2012-10-17, 00:21:05,VALID,919.468,VALID,0,VALID,97.6788,VALID,0,VALID,19.2377,VALID,39,VALID,0,
2012-10-17, 00:22:05,VALID,919.789,VALID,0,VALID,97.6941,VALID,0,VALID,19.2377,VALID,47,VALID,0,
2012-10-17, 00:23:05,VALID,920.139,VALID,0,VALID,97.6788,VALID,0,VALID,19.2377,VALID,47,VALID,0,
2012-10-17, 00:24:05,VALID,920.284,VALID,0,VALID,97.7017,VALID,0,VALID,19.2377,VALID,47,VALID,0,
2012-10-17, 00:25:05,VALID,919.841,VALID,0,VALID,97.6941,VALID,0,VALID,19.2377,VALID,47,VALID,0,
2012-10-17, 00:26:05,VALID,920.341,VALID,0,VALID,97.6865,VALID,0,VALID,19.2767,VALID,47,VALID,0,
2012-10-17, 00:27:05,VALID,919.112,VALID,0,VALID,97.6865,VALID,0,VALID,19.2782,VALID,47,VALID,0,
2012-10-17, 00:28:05,VALID,919.48,VALID,0,VALID,97.6865,VALID,0,VALID,19.2767,VALID,47,VALID,0,
2012-10-17, 00:29:05,VALID,920.128,VALID,0,VALID,97.6788,VALID,0,VALID,19.2753,VALID,47,VALID,0,
2012-10-17, 00:30:05,VALID,919.877,VALID,0,VALID,97.6788,VALID,0,VALID,19.2767,VALID,60,VALID,0,
2012-10-17, 00:31:05,VALID,919.527,VALID,0,VALID,97.6865,VALID,0,VALID,19.2962,VALID,60,VALID,0,
2012-10-17, 00:32:05,VALID,919.356,VALID,0,VALID,97.7093,VALID,0,VALID,19.2948,VALID,60,VALID,0,
2012-10-17, 00:33:05,VALID,920.056,VALID,0,VALID,97.7017,VALID,0.107441,VALID,19.3143,VALID,60,VALID,0,
2012-10-17, 00:34:05,VALID,918.857,VALID,0,VALID,97.6941,VALID,0.107441,VALID,19.3338,VALID,60,VALID,0,
2012-10-17, 00:35:05,VALID,919.372,VALID,0,VALID,97.6865,VALID,0.107441,VALID,19.3143,VALID,60,VALID,0,
2012-10-17, 00:36:05,VALID,919.923,VALID,0,VALID,97.6941,VALID,0.107441,VALID,19.3338,VALID,60,VALID,0,
2012-10-17, 00:37:05,VALID,920.16,VALID,0,VALID,97.6865,VALID,0.107441,VALID,19.3533,VALID,60,VALID,0,
2012-10-17, 00:38:05,VALID,919.365,VALID,0.2,VALID,97.6788,VALID,0.107441,VALID,19.3533,VALID,60,VALID,0,
2012-10-17, 00:39:05,VALID,919.661,VALID,0,VALID,97.6788,VALID,0.107441,VALID,19.3338,VALID,60,VALID,0,
2012-10-17, 00:40:05,VALID,919.821,VALID,0,VALID,97.6865,VALID,0.107441,VALID,19.3728,VALID,60,VALID,0,
2012-10-17, 00:41:05,VALID,919.12,VALID,0,VALID,97.6788,VALID,0.107441,VALID,19.3533,VALID,60,VALID,0,
2012-10-17, 00:42:05,VALID,919.867,VALID,0,VALID,97.6865,VALID,0,VALID,19.3352,VALID,60,VALID,0,
2012-10-17, 00:43:05,VALID,919.771,VALID,0,VALID,97.7017,VALID,0.107441,VALID,19.2753,VALID,60,VALID,0,
2012-10-17, 00:44:05,VALID,919.698,VALID,0,VALID,97.6865,VALID,0.107441,VALID,19.3338,VALID,60,VALID,0,
2012-10-17, 00:45:05,VALID,918.413,VALID,0,VALID,97.6865,VALID,0.107441,VALID,19.3518,VALID,60,VALID,0,
2012-10-17, 00:46:05,VALID,920.069,VALID,0,VALID,97.7017,VALID,0.107441,VALID,19.3323,VALID,60,VALID,0,
2012-10-17, 00:47:05,VALID,920.321,VALID,0,VALID,97.6941,VALID,0,VALID,19.2962,VALID,60,VALID,0,
2012-10-17, 00:48:05,VALID,919.102,VALID,0,VALID,97.7093,VALID,0,VALID,19.2572,VALID,60,VALID,0,
2012-10-17, 00:49:05,VALID,920.211,VALID,0,VALID,97.6941,VALID,0,VALID,19.2182,VALID,60,VALID,0,
2012-10-17, 00:50:05,VALID,920.706,VALID,0,VALID,97.7017,VALID,0,VALID,19.1973,VALID,60,VALID,0,
2012-10-17, 00:51:05,VALID,919.152,VALID,0,VALID,97.6865,VALID,0,VALID,19.2377,VALID,60,VALID,0,
2012-10-17, 00:52:05,VALID,920.14,VALID,0,VALID,97.7017,VALID,0,VALID,19.2363,VALID,60,VALID,0,
2012-10-17, 00:53:05,VALID,919.966,VALID,0,VALID,97.7017,VALID,0,VALID,19.2767,VALID,60,VALID,0,
2012-10-17, 00:54:05,VALID,919.065,VALID,0,VALID,97.7017,VALID,0,VALID,19.2767,VALID,60,VALID,0,
2012-10-17, 00:55:05,INVALID,921.066,VALID,0,VALID,97.6941,VALID,0,VALID,19.2948,VALID,60,VALID,0,
2012-10-17, 00:56:05,VALID,919.705,VALID,0,VALID,97.6788,VALID,0,VALID,19.3352,VALID,60,VALID,0,
2012-10-17, 00:57:05,VALID,920.364,VALID,0,VALID,97.7169,VALID,0,VALID,19.3547,VALID,60,VALID,0,
2012-10-17, 00:58:05,INVALID,918.17,VALID,0,VALID,97.7169,VALID,0,VALID,19.3728,VALID,60,VALID,0,
2012-10-17, 00:59:05,VALID,919.504,VALID,0,VALID,97.6941,VALID,0,VALID,19.4132,VALID,60,VALID,0,
2012-10-17, 01:00:05,INVALID,921.677,VALID,0,VALID,97.7322,VALID,0,VALID,19.3937,VALID,60,VALID,0,
2012-10-17, 01:01:05,VALID,919.219,VALID,0,VALID,97.7093,VALID,0,VALID,19.3742,VALID,60,VALID,0,
2012-10-17, 01:02:05,INVALID,921.548,VALID,0,VALID,97.7093,VALID,0,VALID,19.3742,VALID,60,VALID,0,
2012-10-17, 01:03:05,VALID,919.862,VALID,0,VALID,97.7169,VALID,0,VALID,19.3742,VALID,60,VALID,0,
2012-10-17, 01:04:05,VALID,919.729,VALID,0,VALID,97.6941,VALID,0,VALID,19.3937,VALID,60,VALID,0,
2012-10-17, 01:05:05,VALID,919.016,VALID,0,VALID,97.7093,VALID,0,VALID,19.4132,VALID,60,VALID,0,
2012-10-17, 01:06:05,VALID,918.871,VALID,0,VALID,97.6941,VALID,0,VALID,19.4132,VALID,60,VALID,0,
2012-10-17, 01:07:05,VALID,920.439,VALID,0,VALID,97.6941,VALID,0,VALID,19.4132,VALID,60,VALID,0,
2012-10-17, 01:08:05,INVALID,918.218,VALID,0,VALID,97.6941,VALID,0,VALID,19.3937,VALID,60,VALID,0,
2012-10-17, 01:09:05,VALID,918.611,VALID,0,VALID,97.7017,VALID,0,VALID,19.3533,VALID,60,VALID,0,
2012-10-17, 01:10:05,VALID,920.493,VALID,0,VALID,97.6941,VALID,0,VALID,19.3937,VALID,60,VALID,0,
2012-10-17, 01:11:05,VALID,919.881,VALID,0,VALID,97.7093,VALID,0,VALID,19.3742,VALID,60,VALID,0,
2012-10-17, 01:12:05,VALID,917.959,VALID,0,VALID,97.7093,VALID,0,VALID,19.3547,VALID,60,VALID,0,
2012-10-17, 01:13:05,INVALID,921.072,VALID,0,VALID,97.6941,VALID,0,VALID,19.3352,VALID,60,VALID,0,
2012-10-17, 01:14:05,VALID,918.519,VALID,0,VALID,97.6941,VALID,0.107441,VALID,19.2753,VALID,60,VALID,0,
2012-10-17, 01:15:05,INVALID,920.717,VALID,0,VALID,97.6941,VALID,0,VALID,19.2767,VALID,60,VALID,0,
2012-10-17, 06:28:05,INVALID - VALUE NOT AVAILABLE,0,INVALID - VALUE NOT AVAILABLE,0,INVALID - VALUE NOT AVAILABLE,0,INVALID - VALUE NOT AVAILABLE,0,INVALID - VALUE NOT AVAILABLE,0,INVALID,360,INVALID,0,
2012-10-17, 06:36:04,VALID,918.27,VALID,0,VALID,97.8465,VALID,84.1264,VALID,19.1792,VALID,120,VALID,0,
2012-10-17, 06:37:04,VALID,918.213,VALID,0,VALID,97.8465,VALID,85.738,VALID,19.2182,VALID,120,VALID,0,
2012-10-17, 06:38:04,VALID,918.181,VALID,0,VALID,97.8084,VALID,85.4157,VALID,19.2377,VALID,120,VALID,0,
2012-10-17, 06:39:04,VALID,918.223,VALID,0,VALID,97.816,VALID,83.052,VALID,19.2767,VALID,120,VALID,0,
2012-10-17, 06:40:04,VALID,918.216,VALID,0,VALID,97.8389,VALID,82.1925,VALID,19.2962,VALID,120,VALID,0,
2012-10-17, 06:41:04,VALID,918.217,VALID,0,VALID,97.8237,VALID,74.779,VALID,19.3742,VALID,130,VALID,0,
2012-10-17, 06:42:04,VALID,918.25,VALID,0,VALID,97.8084,VALID,70.6963,VALID,19.3547,VALID,152,VALID,0,
2012-10-17, 06:43:04,VALID,918.25,VALID,0,VALID,97.8389,VALID,68.0102,VALID,19.3352,VALID,133,VALID,0,
2012-10-17, 06:44:04,VALID,918.236,VALID,0,VALID,97.816,VALID,67.5805,VALID,19.3157,VALID,130,VALID,0,
2012-10-17, 06:45:04,VALID,918.212,VALID,0,VALID,97.816,VALID,67.9028,VALID,19.2962,VALID,130,VALID,0,
2012-10-17, 06:46:04,VALID,918.21,VALID,0,VALID,97.8237,VALID,68.7623,VALID,19.3157,VALID,130,VALID,0,
2012-10-17, 06:47:04,VALID,918.209,VALID,0,VALID,97.8008,VALID,70.2665,VALID,19.3157,VALID,130,VALID,0,
2012-10-17, 06:48:04,VALID,918.221,VALID,0,VALID,97.8313,VALID,71.9856,VALID,19.3352,VALID,130,VALID,0,
2012-10-17, 06:49:04,VALID,918.24,VALID,0,VALID,97.816,VALID,72.6302,VALID,19.3157,VALID,156,VALID,0,
2012-10-17, 06:50:04,VALID,918.239,VALID,0,VALID,97.816,VALID,73.2749,VALID,19.2962,VALID,161,VALID,0,
2012-10-17, 06:51:04,VALID,918.232,VALID,0,VALID,97.8237,VALID,74.027,VALID,19.2962,VALID,161,VALID,0,
2012-10-17, 06:52:04,VALID,918.246,VALID,0,VALID,97.7932,VALID,74.8865,VALID,19.3352,VALID,161,VALID,0,
2012-10-17, 06:53:04,VALID,918.276,VALID,0,VALID,97.8008,VALID,75.5311,VALID,19.3742,VALID,131,VALID,0,
2012-10-17, 06:54:04,VALID,918.295,VALID,0,VALID,97.8084,VALID,75.9609,VALID,19.3742,VALID,131,VALID,0,
2012-10-17, 06:55:04,VALID,918.323,VALID,0,VALID,97.816,VALID,76.2832,VALID,19.3742,VALID,137,VALID,0,
2012-10-17, 06:56:04,VALID,918.344,VALID,0,VALID,97.7932,VALID,77.0353,VALID,19.3533,VALID,150,VALID,0,
2012-10-17, 06:57:04,VALID,918.352,VALID,0,VALID,97.8237,VALID,77.2502,VALID,19.3742,VALID,137,VALID,0,
2012-10-17, 06:58:04,VALID,918.355,VALID,0,VALID,97.8008,VALID,78.432,VALID,19.3937,VALID,137,VALID,0,
2012-10-17, 06:59:04,VALID,918.367,VALID,0,VALID,97.8008,VALID,79.0767,VALID,19.4132,VALID,138,VALID,0,
2012-10-17, 07:00:04,VALID,918.37,VALID,0,VALID,97.7779,VALID,78.5395,VALID,19.3728,VALID,153,VALID,0,
2012-10-17, 07:01:04,VALID,918.384,VALID,0,VALID,97.8008,VALID,77.1427,VALID,19.3742,VALID,157,VALID,0,
2012-10-17, 07:02:04,VALID,918.405,VALID,0,VALID,97.8084,VALID,75.9609,VALID,19.3742,VALID,154,VALID,0,
2012-10-17, 07:03:04,VALID,918.424,VALID,0,VALID,97.816,VALID,74.9939,VALID,19.3533,VALID,169,VALID,0,
2012-10-17, 07:04:04,VALID,918.379,VALID,0,VALID,97.7779,VALID,74.4567,VALID,19.3937,VALID,169,VALID,0,
2012-10-17, 07:05:04,VALID,918.398,VALID,0,VALID,97.8084,VALID,74.4567,VALID,19.3937,VALID,158,VALID,0,
2012-10-17, 07:06:04,VALID,918.393,VALID,0,VALID,97.7856,VALID,75.8535,VALID,19.4132,VALID,161,VALID,0,
2012-10-17, 07:07:04,VALID,918.402,VALID,0,VALID,97.8008,VALID,79.0767,VALID,19.3937,VALID,138,VALID,0,
2012-10-17, 07:08:04,VALID,918.441,VALID,0,VALID,97.8084,VALID,82.2999,VALID,19.3728,VALID,168,VALID,0,
2012-10-17, 07:09:04,VALID,918.431,VALID,0,VALID,97.7856,VALID,83.2669,VALID,19.3742,VALID,168,VALID,0,
2012-10-17, 07:10:04,VALID,918.423,VALID,0,VALID,97.7932,VALID,81.5478,VALID,19.3937,VALID,168,VALID,0,
2012-10-17, 07:11:04,VALID,918.47,VALID,0,VALID,97.7779,VALID,79.1841,VALID,19.4313,VALID,168,VALID,0,
2012-10-17, 07:12:04,VALID,918.475,VALID,0,VALID,97.7932,VALID,77.3576,VALID,19.4327,VALID,168,VALID,0,
2012-10-17, 07:13:04,VALID,918.472,VALID,0,VALID,97.8008,VALID,75.5311,VALID,19.4523,VALID,161,VALID,0,
2012-10-17, 07:14:04,VALID,918.537,VALID,0,VALID,97.7703,VALID,74.1344,VALID,19.4508,VALID,140,VALID,0,
2012-10-17, 07:15:04,VALID,918.528,VALID,0,VALID,97.7779,VALID,72.5228,VALID,19.4913,VALID,145,VALID,0,
2012-10-17, 07:16:04,VALID,918.554,VALID,0,VALID,97.7779,VALID,71.9856,VALID,19.5108,VALID,145,VALID,0,
2012-10-17, 07:17:04,VALID,918.563,VALID,0,VALID,97.7703,VALID,70.8037,VALID,19.4703,VALID,160,VALID,0,
2012-10-17, 07:18:04,VALID,918.574,VALID,0,VALID,97.7856,VALID,68.8698,VALID,19.4523,VALID,150,VALID,0,
2012-10-17, 07:19:04,VALID,918.58,VALID,0,VALID,97.7932,VALID,68.2251,VALID,19.4508,VALID,150,VALID,0,
2012-10-17, 07:20:04,VALID,918.56,VALID,0,VALID,97.7932,VALID,69.6219,VALID,19.4913,VALID,159,VALID,0,
2012-10-17, 07:21:04,VALID,918.592,VALID,0,VALID,97.7856,VALID,71.7707,VALID,19.4898,VALID,150,VALID,0,
2012-10-17, 07:22:04,VALID,918.556,VALID,0,VALID,97.7627,VALID,74.1344,VALID,19.5093,VALID,148,VALID,0,
2012-10-17, 07:23:04,VALID,918.55,VALID,0,VALID,97.8008,VALID,75.2088,VALID,19.4898,VALID,148,VALID,0,
2012-10-17, 07:24:04,VALID,918.594,VALID,0,VALID,97.7703,VALID,73.8121,VALID,19.5303,VALID,145,VALID,0,
2012-10-17, 07:25:04,VALID,918.588,VALID,0,VALID,97.7779,VALID,73.9195,VALID,19.5093,VALID,125,VALID,0,
2012-10-17, 07:26:04,VALID,918.613,VALID,0,VALID,97.7627,VALID,75.1014,VALID,19.5108,VALID,125,VALID,0,
2012-10-17, 07:27:04,VALID,918.606,VALID,0,VALID,97.7703,VALID,76.3907,VALID,19.5288,VALID,125,VALID,0,
2012-10-17, 07:28:04,VALID,918.647,VALID,0,VALID,97.7703,VALID,77.4651,VALID,19.5693,VALID,135,VALID,0,
2012-10-17, 07:29:04,VALID,918.649,VALID,0,VALID,97.7322,VALID,78.5395,VALID,19.5873,VALID,131,VALID,0,
2012-10-17, 07:30:04,VALID,918.645,VALID,0,VALID,97.7474,VALID,78.5395,VALID,19.5873,VALID,138,VALID,0,
2012-10-17, 07:31:04,VALID,918.682,VALID,0,VALID,97.7551,VALID,78.7544,VALID,19.5678,VALID,141,VALID,0,
2012-10-17, 07:32:04,VALID,918.661,VALID,0,VALID,97.7398,VALID,79.7213,VALID,19.6068,VALID,144,VALID,0,
2012-10-17, 07:33:04,VALID,918.696,VALID,0,VALID,97.7779,VALID,82.085,VALID,19.6263,VALID,141,VALID,0,
2012-10-17, 07:34:04,VALID,918.667,VALID,0,VALID,97.7627,VALID,85.2008,VALID,19.6263,VALID,160,VALID,0,
2012-10-17, 07:35:04,VALID,918.678,VALID,0,VALID,97.7703,VALID,90.1431,VALID,19.6668,VALID,137,VALID,0,
2012-10-17, 07:36:04,VALID,918.668,VALID,0,VALID,97.7322,VALID,89.8208,VALID,19.7043,VALID,144,VALID,0,
2012-10-17, 07:37:04,VALID,918.674,VALID,0,VALID,97.7398,VALID,92.6143,VALID,19.7043,VALID,150,VALID,0,
2012-10-17, 07:38:04,VALID,918.662,VALID,0,VALID,97.7322,VALID,90.0357,VALID,19.7238,VALID,153,VALID,0,
2012-10-17, 07:39:04,VALID,918.669,VALID,0,VALID,97.7322,VALID,87.672,VALID,19.7433,VALID,159,VALID,0,
2012-10-17, 07:40:04,VALID,918.653,VALID,0,VALID,97.7322,VALID,91.5399,VALID,19.7433,VALID,136,VALID,0,
2012-10-17, 07:41:04,VALID,918.671,VALID,0,VALID,97.7474,VALID,102.714,VALID,19.7238,VALID,138,VALID,0,
2012-10-17, 07:42:04,VALID,918.679,VALID,0,VALID,97.7322,VALID,115.177,VALID,19.7238,VALID,148,VALID,0,
2012-10-17, 07:43:04,VALID,918.716,VALID,0,VALID,97.7322,VALID,119.152,VALID,19.7238,VALID,122,VALID,0,
2012-10-17, 07:44:04,VALID,918.718,VALID,0,VALID,97.7322,VALID,105.185,VALID,19.7238,VALID,119,VALID,0,
2012-10-17, 07:45:04,VALID,918.715,VALID,0,VALID,97.7322,VALID,92.1845,VALID,19.7628,VALID,124,VALID,0,
2012-10-17, 07:46:04,VALID,918.69,VALID,0,VALID,97.7093,VALID,87.1348,VALID,19.8408,VALID,124,VALID,0,
2012-10-17, 07:47:04,VALID,918.716,VALID,0,VALID,97.7169,VALID,91.5399,VALID,19.8408,VALID,124,VALID,0,
2012-10-17, 07:48:04,VALID,918.738,VALID,0,VALID,97.7169,VALID,101.102,VALID,19.8603,VALID,122,VALID,0,
2012-10-17, 07:49:04,VALID,918.745,VALID,0,VALID,97.7017,VALID,113.35,VALID,19.8993,VALID,120,VALID,0,
2012-10-17, 07:50:04,VALID,918.757,VALID,0,VALID,97.7017,VALID,119.367,VALID,19.9188,VALID,152,VALID,0,
2012-10-17, 07:51:04,VALID,918.737,VALID,0,VALID,97.7169,VALID,115.822,VALID,19.8993,VALID,162,VALID,0,
2012-10-17, 07:52:04,VALID,918.726,VALID,0,VALID,97.6865,VALID,115.392,VALID,19.8813,VALID,168,VALID,0,
2012-10-17, 07:53:04,VALID,918.715,VALID,0,VALID,97.7017,VALID,123.02,VALID,19.8618,VALID,162,VALID,0,
2012-10-17, 07:54:04,VALID,918.746,VALID,0,VALID,97.6865,VALID,198.981,VALID,19.9008,VALID,161,VALID,0,
2012-10-17, 07:55:04,VALID,918.735,VALID,0,VALID,97.6865,VALID,227.668,VALID,19.9203,VALID,157,VALID,0,
2012-10-17, 07:56:04,VALID,918.736,VALID,0,VALID,97.6788,VALID,168.575,VALID,19.9788,VALID,156,VALID,0,
2012-10-17, 07:57:04,VALID,918.752,VALID,0,VALID,97.6712,VALID,130.756,VALID,20.0374,VALID,150,VALID,0,
2012-10-17, 07:58:04,VALID,918.721,VALID,0,VALID,97.6788,VALID,122.483,VALID,20.0374,VALID,146,VALID,0,
2012-10-17, 07:59:04,VALID,918.747,VALID,0,VALID,97.6636,VALID,146.872,VALID,20.0569,VALID,136,VALID,0,
2012-10-17, 08:00:04,VALID,918.757,VALID,0,VALID,97.6407,VALID,186.625,VALID,20.1349,VALID,164,VALID,0,
2012-10-17, 08:01:04,VALID,918.78,VALID,0,VALID,97.6407,VALID,206.502,VALID,20.0959,VALID,141,VALID,0,
2012-10-17, 08:02:04,VALID,918.765,VALID,0,VALID,97.656,VALID,250.66,VALID,20.1529,VALID,107,VALID,0,
2012-10-17, 08:03:04,VALID,918.783,VALID,0,VALID,97.6102,VALID,253.131,VALID,20.1919,VALID,171,VALID,0,
2012-10-17, 08:04:04,VALID,918.749,VALID,0,VALID,97.6178,VALID,248.619,VALID,20.3105,VALID,152,VALID,0,
2012-10-17, 08:05:04,VALID,918.756,VALID,0,VALID,97.6102,VALID,263.231,VALID,20.369,VALID,130,VALID,0,
2012-10-17, 08:06:04,VALID,918.753,VALID,0,VALID,97.6026,VALID,275.049,VALID,20.4845,VALID,142,VALID,0,
2012-10-17, 08:07:04,VALID,918.733,VALID,0,VALID,97.5492,VALID,276.554,VALID,20.6015,VALID,111,VALID,0,
2012-10-17, 08:08:04,VALID,918.745,VALID,0,VALID,97.534,VALID,284.504,VALID,20.6795,VALID,133,VALID,0,
2012-10-17, 08:09:04,VALID,918.755,VALID,0,VALID,97.5416,VALID,285.471,VALID,20.699,VALID,140,VALID,0,
2012-10-17, 08:10:04,VALID,918.746,VALID,0,VALID,97.5035,VALID,287.513,VALID,20.678,VALID,147,VALID,0,
2012-10-17, 08:11:04,VALID,918.766,VALID,0,VALID,97.4806,VALID,290.628,VALID,20.66,VALID,154,VALID,0,
2012-10-17, 08:12:04,VALID,918.778,VALID,0,VALID,97.4349,VALID,291.38,VALID,20.5625,VALID,161,VALID,0,
2012-10-17, 08:13:04,VALID,918.795,VALID,0,VALID,97.4273,VALID,292.455,VALID,20.5804,VALID,145,VALID,0,
2012-10-17, 08:14:04,VALID,918.768,VALID,0,VALID,97.4044,VALID,289.769,VALID,20.5999,VALID,162,VALID,0,
2012-10-17, 08:15:04,VALID,918.807,VALID,0,VALID,97.3968,VALID,291.273,VALID,20.6015,VALID,165,VALID,0.216797,
2012-10-17, 08:16:04,VALID,918.814,VALID,0,VALID,97.3815,VALID,302.447,VALID,20.5804,VALID,167,VALID,0.00429688,
2012-10-17, 08:17:04,VALID,918.802,VALID,0,VALID,97.3586,VALID,315.125,VALID,20.6585,VALID,165,VALID,0,
2012-10-17, 08:18:04,VALID,918.805,VALID,0,VALID,97.3586,VALID,330.167,VALID,20.6795,VALID,164,VALID,0,
2012-10-17, 08:19:04,VALID,918.829,VALID,0,VALID,97.3358,VALID,338.977,VALID,20.7966,VALID,156,VALID,0,
2012-10-17, 08:20:04,VALID,918.84,VALID,0,VALID,97.3053,VALID,345.961,VALID,20.8941,VALID,143,VALID,0,
2012-10-17, 08:21:04,VALID,918.844,VALID,0,VALID,97.2977,VALID,351.225,VALID,20.9917,VALID,175,VALID,0,
2012-10-17, 08:22:04,VALID,918.859,VALID,0,VALID,97.2519,VALID,360.143,VALID,21.0112,VALID,157,VALID,0,
2012-10-17, 08:23:04,VALID,918.853,VALID,0,VALID,97.2138,VALID,372.713,VALID,21.0713,VALID,165,VALID,0,
2012-10-17, 08:24:04,VALID,918.844,VALID,0,VALID,97.2138,VALID,384.424,VALID,21.0697,VALID,149,VALID,0,
2012-10-17, 08:25:04,VALID,918.833,VALID,0,VALID,97.1223,VALID,392.697,VALID,21.0697,VALID,170,VALID,0.00195313,
2012-10-17, 08:26:04,VALID,918.828,VALID,0,VALID,97.0537,VALID,397.103,VALID,21.0892,VALID,159,VALID,0,
2012-10-17, 08:27:04,VALID,918.844,VALID,0,VALID,97.0232,VALID,398.499,VALID,21.2063,VALID,162,VALID,0,
2012-10-17, 08:28:04,VALID,918.846,VALID,0,VALID,97.0156,VALID,398.499,VALID,21.3234,VALID,146,VALID,0,
2012-10-17, 08:29:04,VALID,918.847,VALID,0,VALID,96.9546,VALID,404.086,VALID,21.3624,VALID,159,VALID,0,
2012-10-17, 08:30:04,VALID,918.84,VALID,0,VALID,96.8555,VALID,413.756,VALID,21.4209,VALID,150,VALID,0,
2012-10-17, 08:31:04,VALID,918.845,VALID,0,VALID,96.8174,VALID,424.93,VALID,21.5754,VALID,173,VALID,0,
2012-10-17, 08:32:04,VALID,918.832,VALID,0,VALID,96.7716,VALID,431.376,VALID,21.6534,VALID,140,VALID,0,
2012-10-17, 08:33:04,VALID,918.854,VALID,0,VALID,96.6344,VALID,435.352,VALID,21.6924,VALID,164,VALID,0,
2012-10-17, 08:34:04,VALID,918.832,VALID,0,VALID,96.4972,VALID,439.757,VALID,21.829,VALID,100,VALID,0,
2012-10-17, 08:35:04,VALID,918.858,VALID,0,VALID,96.177,VALID,446.74,VALID,21.8876,VALID,109,VALID,0.00351562,
2012-10-17, 08:36:04,VALID,918.858,VALID,0,VALID,95.9864,VALID,457.27,VALID,22.0454,VALID,126,VALID,0,
2012-10-17, 08:37:04,VALID,918.854,VALID,0,VALID,95.5976,VALID,461.675,VALID,22.1608,VALID,119,VALID,0,
2012-10-17, 08:38:04,VALID,918.88,VALID,0,VALID,94.9192,VALID,460.385,VALID,22.1803,VALID,93,VALID,0,
2012-10-17, 08:39:04,VALID,918.903,VALID,0,VALID,93.4859,VALID,468.443,VALID,22.1022,VALID,104,VALID,1.13789,
2012-10-17, 08:40:04,VALID,918.922,VALID,0,VALID,92.8075,VALID,478.328,VALID,22.0437,VALID,130,VALID,0.796094,
2012-10-17, 08:41:04,VALID,918.908,VALID,0,VALID,92.5559,VALID,487.783,VALID,22.0242,VALID,139,VALID,0.426172,
2012-10-17, 08:42:04,VALID,918.904,VALID,0,VALID,91.5877,VALID,492.94,VALID,22.0437,VALID,108,VALID,0.36875,
2012-10-17, 08:43:04,VALID,918.87,VALID,0,VALID,90.8101,VALID,496.593,VALID,22.0437,VALID,70,VALID,0.00976563,
2012-10-17, 08:44:04,VALID,918.936,VALID,0,VALID,91.2523,VALID,505.94,VALID,22.1803,VALID,96,VALID,0,
2012-10-17, 08:45:04,VALID,918.898,VALID,0,VALID,90.9169,VALID,511.85,VALID,22.3364,VALID,154,VALID,0,
2012-10-17, 08:46:04,VALID,918.869,VALID,0,VALID,89.9029,VALID,517.651,VALID,22.4925,VALID,144,VALID,0.00429688,
2012-10-17, 08:47:04,VALID,918.86,VALID,0,VALID,90.5738,VALID,522.271,VALID,22.6682,VALID,116,VALID,0,
2012-10-17, 08:48:04,VALID,918.85,VALID,0,VALID,88.9576,VALID,523.023,VALID,22.7853,VALID,144,VALID,0,
2012-10-17, 08:49:04,VALID,918.812,VALID,0,VALID,88.5079,VALID,521.949,VALID,22.9024,VALID,141,VALID,0,
2012-10-17, 08:50:04,VALID,918.812,VALID,0,VALID,88.2105,VALID,528.61,VALID,22.9202,VALID,168,VALID,0,
2012-10-17, 08:51:04,VALID,918.81,VALID,0,VALID,88.0733,VALID,533.123,VALID,22.9805,VALID,119,VALID,0,
2012-10-17, 08:52:04,VALID,918.793,VALID,0,VALID,88.7823,VALID,537.098,VALID,23.0568,VALID,150,VALID,0,
2012-10-17, 08:53:04,VALID,918.809,VALID,0,VALID,87.7455,VALID,541.396,VALID,23.1562,VALID,157,VALID,0,
2012-10-17, 08:54:04,VALID,918.79,VALID,0,VALID,86.7468,VALID,548.272,VALID,23.1757,VALID,171,VALID,0,
2012-10-17, 08:55:04,VALID,918.816,VALID,0,VALID,86.7773,VALID,558.694,VALID,23.1952,VALID,169,VALID,0,
2012-10-17, 08:56:04,VALID,918.807,VALID,0,VALID,87.1966,VALID,563.744,VALID,23.1757,VALID,126,VALID,0,
2012-10-17, 08:57:04,VALID,918.774,VALID,0,VALID,85.2984,VALID,564.173,VALID,23.0976,VALID,97,VALID,0,
2012-10-17, 08:58:04,VALID,918.81,VALID,0,VALID,85.7863,VALID,539.355,VALID,22.961,VALID,89,VALID,0.220313,
2012-10-17, 08:59:04,VALID,918.79,VALID,0,VALID,87.1585,VALID,574.38,VALID,22.8829,VALID,115,VALID,0,
2012-10-17, 09:00:04,VALID,918.796,VALID,0,VALID,86.6859,VALID,570.727,VALID,22.8634,VALID,141,VALID,0,
2012-10-17, 09:01:04,VALID,918.761,VALID,0,VALID,87.4025,VALID,572.554,VALID,22.9024,VALID,195,VALID,0,
2012-10-17, 09:02:04,VALID,918.77,VALID,0,VALID,87.6159,VALID,573.199,VALID,23.0781,VALID,132,VALID,0,
2012-10-17, 09:03:04,VALID,918.796,VALID,0,VALID,88.4469,VALID,577.604,VALID,23.2733,VALID,143,VALID,0,
2012-10-17, 09:04:04,VALID,918.777,VALID,0,VALID,87.4558,VALID,582.116,VALID,23.5271,VALID,160,VALID,0,
2012-10-17, 09:05:04,VALID,918.785,VALID,0,VALID,85.8168,VALID,588.885,VALID,23.6442,VALID,156,VALID,0,
2012-10-17, 09:06:04,VALID,918.776,VALID,0,VALID,84.6504,VALID,591.678,VALID,23.662,VALID,117,VALID,0.0289063,
2012-10-17, 09:07:04,VALID,918.791,VALID,0,VALID,84.7343,VALID,596.298,VALID,23.7418,VALID,160,VALID,0,